Content
SEND FEEDBACK

Daily
Averages
Monthly
Summary
United States of America

MONTROSE, COLORADO


Home > North America > United States > Colorado
Elevation: 5759 feet     Latitude: 38 29N     Longitude: 107 53W

WEATHER
 
SELECT A DAY
Number of Records: 180,856;   Date Range: 1/1/95 - 9/16/14
 
SHARE

PRINT THIS DATA

[ ← Previous Day ]
WEATHER ALMANAC - JANUARY 31, 2013
[ Next Day → ]
[ °C ]   °F
Weather ElementAverageHighLow
Temperature32 °F43 °F (2:53 pm)24.1 °F (7:53 am)
Dewpoint21.9 °F25 °F (11:53 am)19 °F (12:53 pm)
Humidity69.2 %91 % (7:53 am)38 % (3:53 pm)
Barometer30.30 in30.40 in (9:53 am)30.22 in (1:53 am)
Wind Speed2.1 mph6.9 mph (4:53 pm)
Weather ElementAverage
Visibility10 mi
Wind DirectionNE (42.9 °)

Weather ElementTotal
Precipitation---
Heating Degree Days31.5 (Base 65)
Averaged from 21 records on January 31, 2013
WEATHER CONDITIONS BREAKOUT
WIND DIRECTION BREAKOUT
WEATHER BY HOUR - JANUARY 31, 2013
[ °C ]   °F
Local TimeTemperatureDewpointHumidityBarometerVisibilityWind DirectionWind SpeedGust SpeedPrecipitationEventsConditions
1:53 AM26.1 °F23.0 °F88 %30.22 in10.0 miCalmOvercast
2:53 AM26.1 °F21.9 °F84 %30.24 in10.0 miCalmOvercast
3:53 AM26.1 °F21.0 °F81 %30.25 in10.0 miSouth (180°)3.5 mphOvercast
4:53 AM25.0 °F21.9 °F88 %30.28 in10.0 miESE (120°)5.8 mphOvercast
5:53 AM25.0 °F21.0 °F85 %30.28 in10.0 miCalmOvercast
6:53 AM25.0 °F21.0 °F85 %30.30 in10.0 miNorth (10°)4.6 mphOvercast
7:53 AM24.1 °F21.9 °F91 %30.35 in10.0 miCalmOvercast
8:53 AM27.0 °F23.0 °F85 %30.37 in10.0 miCalmOvercast
9:53 AM28.0 °F23.0 °F81 %30.40 in10.0 miCalmOvercast
10:53 AM32.0 °F24.1 °F73 %30.38 in10.0 miCalmScattered Clouds
11:53 AM37.0 °F25.0 °F62 %30.33 in10.0 miCalmClear
12:53 PM42.1 °F19.0 °F40 %30.28 in10.0 miCalmClear
1:53 PM42.1 °F21.0 °F43 %30.25 in10.0 miVariable4.6 mphClear
2:53 PM43.0 °F19.9 °F40 %30.24 in10.0 miVariable3.5 mphClear
3:53 PM43.0 °F19.0 °F38 %30.22 in10.0 miCalmClear
4:53 PM41.0 °F21.9 °F47 %30.25 in10.0 miNNW (330°)6.9 mphClear
5:53 PM37.0 °F24.1 °F59 %30.28 in10.0 miCalmOvercast
6:53 PM35.1 °F23.0 °F61 %30.31 in10.0 miCalmPartly Cloudy
7:53 PM30.0 °F23.0 °F75 %30.35 in10.0 miSE (130°)6.9 mphClear
8:53 PM28.9 °F21.0 °F72 %30.35 in10.0 miNorthClear
9:53 PM28.0 °F21.0 °F75 %30.35 in10.0 miSE (130°)6.9 mphClear
Hourly data recorded from KMTJ, located miles away from Montrose, Colorado







STORIES FROM OUR PARTNERS